This is the latest recevied weather packets stored in our database for station/object DB0MOD. If no packets are shown the sender has not sent any weather packets the latest 10 day(s).
| Time | Temp. | Humidity | Pressure | Rain* | Wind** | Luminosity | Snow |
|---|---|---|---|---|---|---|---|
| 1777794851 | 21.11° C | 42% | 1015.6 hPa | 0 mm | - | - | - |
| 1777794551 | 21.11° C | 42% | 1015.6 hPa | 0 mm | - | - | - |
| 1777794251 | 20.56° C | 43% | 1015.7 hPa | 0 mm | - | - | - |
| 1777793951 | 20° C | 44% | 1015.7 hPa | 0 mm | - | - | - |
| 1777793651 | 18.89° C | 44% | 1015.7 hPa | 0 mm | - | - | - |
| 1777793350 | 18.33° C | 45% | 1015.6 hPa | 0 mm | - | - | - |
| 1777793051 | 17.78° C | 45% | 1015.8 hPa | 0 mm | - | - | - |
| 1777792751 | 17.22° C | 46% | 1015.8 hPa | 0 mm | - | - | - |
| 1777792451 | 16.67° C | 45% | 1015.6 hPa | 0 mm | - | - | - |
| 1777792151 | 16.67° C | 45% | 1015.7 hPa | 0 mm | - | - | - |
| 1777791851 | 16.11° C | 46% | 1015.7 hPa | 0 mm | - | - | - |
| 1777791551 | 15.56° C | 46% | 1015.6 hPa | 0 mm | - | - | - |
| 1777791251 | 15° C | 46% | 1015.8 hPa | 0 mm | - | - | - |
| 1777790951 | 14.44° C | 45% | 1015.8 hPa | 0 mm | - | - | - |
| 1777790651 | 14.44° C | 45% | 1015.7 hPa | 0 mm | - | - | - |
| 1777790351 | 14.44° C | 44% | 1015.9 hPa | 0 mm | - | - | - |
| 1777789751 | 13.89° C | 40% | 1015.7 hPa | 0 mm | - | - | - |
| 1777789451 | 13.89° C | 38% | 1015.7 hPa | 0 mm | - | - | - |
| 1777789151 | 13.33° C | 38% | 1015.7 hPa | 0 mm | - | - | - |
| 1777788851 | 13.33° C | 38% | 1015.7 hPa | 0 mm | - | - | - |
| 1777788551 | 13.33° C | 38% | 1015.6 hPa | 0 mm | - | - | - |
| 1777788251 | 13.33° C | 38% | 1015.5 hPa | 0 mm | - | - | - |
| 1777787951 | 12.78° C | 37% | 1015.7 hPa | 0 mm | - | - | - |
| 1777787651 | 12.78° C | 37% | 1015.7 hPa | 0 mm | - | - | - |
| 1777787351 | 12.78° C | 36% | 1015.6 hPa | 0 mm | - | - | - |
* Rain latest hour (hover to see other rain measurements)
** Current wind speed in m/s (hover to see current wind gust speed)